Time,TemperatureF,DewpointF,PressureIn,WindDirection,WindDirectionDegrees,WindSpeedMPH,WindSpeedGustMPH,Humidity,HourlyPrecipIn,Conditions,Clouds,dailyrainin,SoftwareType,DateUTC
2013-11-22 10:30:00,43.8,43.8,30.18,SE,131,0.0,0.0,100,-99.99,,,-99.99,VWS V14.01,2013-11-22 15:30:00,
2013-11-22 11:00:00,44.6,44.6,30.17,SE,131,0.0,0.0,100,-99.99,,,-99.99,VWS V14.01,2013-11-22 16:00:00,
2013-11-22 11:30:00,45.8,45.8,30.15,SE,131,0.0,0.0,100,-99.99,,,-99.99,VWS V14.01,2013-11-22 16:30:00,
2013-11-22 12:00:00,46.7,46.7,30.13,SE,131,0.0,0.0,100,-99.99,,,-99.99,VWS V14.01,2013-11-22 17:00:00,
2013-11-22 12:30:00,48.2,48.2,30.11,SE,131,0.0,0.0,100,-99.99,,,-99.99,VWS V14.01,2013-11-22 17:30:00,
2013-11-22 13:00:00,49.2,49.2,30.10,SE,131,0.0,0.0,100,-99.99,,,-99.99,VWS V14.01,2013-11-22 18:00:00,
2013-11-22 13:30:00,49.9,49.9,30.09,SE,131,0.0,0.0,100,-99.99,,,-99.99,VWS V14.01,2013-11-22 18:30:00,
2013-11-22 14:30:00,50.9,50.9,30.08,SW,236,0.0,0.0,100,-99.99,,,-99.99,VWS V14.01,2013-11-22 19:30:00,
2013-11-22 15:00:00,51.6,51.6,30.06,WSW,250,0.0,7.9,100,-99.99,,,-99.99,VWS V14.01,2013-11-22 20:00:00,
2013-11-22 15:30:00,51.5,51.5,30.05,WSW,250,0.0,0.0,100,-99.99,,,-99.99,VWS V14.01,2013-11-22 20:30:00,
2013-11-22 16:00:00,51.5,51.5,30.05,North,0,3.7,7.4,100,-99.99,,,-99.99,VWS V14.01,2013-11-22 21:00:00,
2013-11-22 16:30:00,51.6,51.6,30.05,WSW,257,0.0,11.4,100,-99.99,,,-99.99,VWS V14.01,2013-11-22 21:30:00,
2013-11-22 17:00:00,51.3,51.3,30.04,NW,326,5.8,10.7,100,-99.99,,,-99.99,VWS V14.01,2013-11-22 22:00:00,
2013-11-22 17:30:00,50.7,50.7,30.05,North,359,0.0,13.5,100,-99.99,,,-99.99,VWS V14.01,2013-11-22 22:30:00,
2013-11-22 18:00:00,49.6,49.6,30.06,NW,322,8.6,18.6,100,-99.99,,,-99.99,VWS V14.01,2013-11-22 23:00:00,
2013-11-22 18:30:00,48.7,48.7,30.07,NNE,21,7.9,20.9,100,-99.99,,,-99.99,VWS V14.01,2013-11-22 23:30:00,
2013-11-22 19:00:00,48.0,48.0,30.08,WNW,283,0.0,20.9,100,-99.99,,,-99.99,VWS V14.01,2013-11-23 00:00:00,
2013-11-22 19:30:00,45.9,45.9,30.10,NW,319,7.7,21.2,100,-99.99,,,-99.99,VWS V14.01,2013-11-23 00:30:00,
2013-11-22 20:00:00,45.2,44.8,30.10,West,270,0.0,19.9,98,-99.99,,,-99.99,VWS V14.01,2013-11-23 01:00:00,
2013-11-22 20:30:00,45.2,44.0,30.11,NW,307,0.0,15.0,96,-99.99,,,-99.99,VWS V14.01,2013-11-23 01:30:00,
2013-11-22 21:00:00,45.1,43.7,30.11,West,280,0.0,15.6,95,-99.99,,,-99.99,VWS V14.01,2013-11-23 02:00:00,
2013-11-22 21:30:00,43.4,42.3,30.14,WSW,255,6.0,21.7,96,-99.99,,,-99.99,VWS V14.01,2013-11-23 02:30:00,
2013-11-22 22:00:00,41.1,38.5,30.16,NNE,14,0.0,26.7,90,-99.99,,,-99.99,VWS V14.01,2013-11-23 03:00:00,